Location: Bienfait
(49.1431°N, 102.8077°W)
Time: 16:10:19
(UTC+00:00)

Envisat - Pass Details

Date: 29 January 2022
Orbit: 764 x 765 km, 98.2° (Epoch: 15 May)

Event Time Altitude Azimuth Distance (km) Brightness Sun altitude
Rises 00:23:23 0° 219° (SW) 3,219 7.4 -7.1°
Reaches altitude 10° 00:27:04 10° 247° (WSW) 2,300 7.2 -7.6°
Maximum altitude 00:29:20 13° 274° (W) 2,104 6.5 -8.0°
Drops below altitude 10° 00:31:37 10° 301° (WNW) 2,308 6.1 -8.3°
Sets 00:35:20 0° 329° (NNW) 3,241 6.4 -8.9°
